Погода в Колке

Погода в Колке : погода сейчас, прогноз погоды и архив. Всё, что Вы хотите узнать о погоде в Колке!

Поиск расширенной информации на нашем сайте:

Другие новости

Новости СМИ2

Главная страница сайта

Новости сайта

03.07.2017

Напоминаем, что на нашем специализированном сайте Метеоцентр.Азия вы можете получить высокодетализированные автоматические прогнозы погоды по пунктам России, СНГ и мира в авиационном формате (включающие направление и скорость ветра, видимость, явления погоды, количество и форму облачности, нижнюю и верхнюю границу облачности).


Погода в Колке - сегодня

Время (UTC), дата Ветер
(°,м/с) 
Видим.   Явления Облачность Т
(°С)
Тd
(°С)
f(%) Тe
(°С)
Pmin
(гПа)
dP
(гПа)
Po
(мм)
O2
(г/м3)
Тmin Tmax R s Состояние
почвы
09 09.12.17 200 (Ю) 5{10}  н/о    н/о 
+2.5 +1.1 90 997.5  1.3  748  298           
12 09.12.17 210 (ЮЗ) 5-10{11}  н/о    н/о 
+2.8 +0.9 87 997.8  0.3  748  298           
15 09.12.17 200 (Ю) 5{11}  н/о    н/о 
+1.8 +0 88 -1  998.3  0.5  748  299           
18 09.12.17 190 (Ю) 6-11{12}  н/о    ясно 
+1.5 -1.3 82 -2  998.4  0.1  748  299    +3       
21 09.12.17 180 (Ю) 6-10{12}  н/о    н/о 
+0.9 -2.2 80 -2  998.1  -0.3  748  300           
00 10.12.17 180 (Ю) 6-10{12}  н/о    н/о 
+0.2 -2.1 85 -3  997.8  -0.3  748  301           
03 10.12.17 190 (Ю) 5{12}  н/о    н/о 
+0.1 -2.2 84 -3  997.1  -0.7  747  300           
09 10.12.17 200 (Ю) н/о    н/о 
-0.1 -0.2 99 -2  997  0.2  747  300           
12 10.12.17 200 (Ю) н/о    н/о 
+0.5 -0.1 96 -2  996.2  -0.8  747  300           
15 10.12.17 190 (Ю) н/о    н/о 
+1.3 +0.2 92 -1  996  -0.2  747  299           
18 10.12.17 200 (Ю) н/о    4/0 кучево-дожд. 
[Cb cap]
+0.9 -0.5 90 -2  996.2  0.2  747  299    +1.4  0.4     
21 10.12.17 200 (Ю) н/о    н/о 
-0.3 -1.8 90 -3  996.9  0.7  747  301           
00 11.12.17 190 (Ю) 5{10}  н/о    н/о 
-0.1 -1.8 88 -3  996.3  -0.6  747  301           
03 11.12.17 160 (Ю) 5-10{11}  н/о    н/о 
+0.6 -1.5 86 -2  995.9  -0.4  746  299           
06 11.12.17 140 (ЮВ) 9-13{12}  10 км    8/0 кучево-дожд., средняя 
[Cb cap|Ac trans]
+1.5 -1.3 82 -3  995.8  -0.1  746  298  -0.6      <0.5  равномерный
мокрый или
старый снег
100% 
09 11.12.17 180 (Ю) 6-10{16}  н/о    н/о 
+0.3 -2 85 -3  996.5  0.7  747  300           
12 11.12.17 150 (ЮВ) 7-12{16}  н/о    н/о 
+0.9 -2.2 80 -3  995.8  -0.7  746  300           
15 11.12.17 170 (Ю) 6-11{13}  н/о    н/о 
+1 -1.3 85 -2  997.1  1.3  747  299           
18 11.12.17 150 (ЮВ) 6-12{13}  н/о    10/0 кучево-дожд. 
[Cb cap]
+1.5 -0.3 88 -2  997.2  0.1  747  299    +1.6       
21 11.12.17 160 (Ю) 5-11{13}  н/о    н/о 
+1.9 +0.5 90 -1  996.6  -0.6  747  298           
00 12.12.17 170 (Ю) 6-13{13}  н/о    н/о 
+2.5 +1.3 92 995.6  -1  746  298           
03 12.12.17 150 (ЮВ) 7-14{14}  н/о    н/о 
+2.7 +1.8 94 -1  992.6  -3  744  296           
09 12.12.17 170 (Ю) 6-10{12}  н/о    н/о 
+3 +2.5 97 988.1  -2  741  294           
12 12.12.17 190 (Ю) 5{12}  н/о    н/о 
+4.1 +3.6 97 +2  986.6  -1.5  739  293           
15 12.12.17 210 (ЮЗ) н/о    н/о 
+6 +5.3 95 +4  987  0.4  740  290           
Время (UTC), дата Ветер
(°,м/с) 
Видим.   Явления Облачность Т
(°С)
Тd
(°С)
f(%) Тe
(°С)
Pmin
(гПа)
dP
(гПа)
Po
(мм)
O2
(г/м3)
Тmin Tmax R s Состояние
почвы

Для получения пояснительной информации подведите курсор к названию столбца.

ПОГОДА в Колке - архив

Всё, что Вы хотите узнать о погоде в Колке - удобно и подробно!

Выберите нужную дату (начиная с 1 января 2015* года) и нажмите кнопку "Найти".
Будут отображены архивные сводки погоды по пункту Колка, начиная с указанной даты.


Отображать данные в формате CSV (для использования в таблицах Excel)


Внимание! Наш архив погоды предназначен исключительно для личного некоммерческого использования в познавательных целях. Если Вам необходимы официальные справки о состоянии погоды (для производственных, юридических, коммерческих и т.п. целей), обращайтесь в органы Росгидромета.

*Примечание: данная дата относится к архиву по метеостанциям СССР (Россия, СНГ, Балтия).
Архив по метеостанциям Зарубежной Европы и Азии (кроме Китая) хранится 10 дней, по другим регионам земного шара (Китай, Африка, Америка, Австралия, Океания) - 1 день.

Колка - район местоположения метеостанции


Название, широта, долгота, высота метеостанции:
Колка 57.8°ш. 22.6°д. 5 м над ур. моря [Латвия]

Дополнительная информация

В oтличие oт бoльшинства пoгoдных сайтoв мы публикуем пoдрoбную метеoинфoрмацию в детальнoм прoфессиoнальнoм фoрмате.

Характеристики температуры и влажнoсти вoздуха измеряются на высoте 2 м в тени вдали oт зданий и деревьев.
Скoрoсть ветра измеряется на высoте 10 м (на урoвне рoста челoвека скoрoсть ветра ниже в 1.5-2 раза). Если метеoстанция нахoдится в гoрoде или в лесу, тo скoрoсть ветра занижена на 2-4 м/с пo сравнению с oткрытым местoм. Скoрoсть ветра над акватoриями крупных рек и oзёр, а также на вершинах хoлмoв на 2-5 м/с выше, чем в oбычных услoвиях.
Атмoсфернoе давление в разных тoчках местнoсти мoжет значительнo oтличаться oт давления на метеoстанции, в зависимoсти oт услoвий рельефа (при пoдъёме на 10 м давление пoнижается примернo на 1 мм рт.ст.).